Regional Weather Roundup
Issued by NWS

Home | Current Version | Previous Version | Text Only | Print | Product List | Glossary On
Versions: 1 2 3 4 5 6 7 8 9 10 11 12 13 14 15 16 17 18 19 20 21 22 23 24 25 26 27 28 29 30 31 32 33 34 35 36 37 38 39 40 41 42 43 44 45 46 47 48 49 50
000
ASUS43 KLMK 220302
RWRKY
KENTUCKY REGIONAL WEATHER ROUNDUP
NATIONAL WEATHER SERVICE LOUISVILLE KY
1100 PM EDT FRI JUL 21 2017

NOTE "FAIR" INDICATES FEW OR NO CLOUDS BELOW 12,000 FEET
WITH NO SIGNIFICANT WEATHER AND/OR OBSTRUCTIONS TO VISIBILITY.

KYZ001>023-026-027-061>063-070>075-220400-
WESTERN AND SOUTH CENTRAL KENTUCKY

CITY           SKY/WX    TMP DP  RH WIND       PRES   REMARKS
PADUCAH        CLEAR     86  76  71 S5        29.95R HX  96
HENDERSON      CLEAR     83  76  79 CALM      29.95R HX  91
OWENSBORO      CLEAR     83  76  79 S5        29.95R HX  91
HOPKINSVILLE   CLEAR     85  77  78 S5        29.97R HX  95
BOWLING GREEN  CLEAR     87  76  69 S6        29.98R HX  97
GLASGOW        NOT AVBL
$$

KYZ024-025-028>034-038-045-046-053-220400-
NORTH CENTRAL KENTUCKY

CITY           SKY/WX    TMP DP  RH WIND       PRES   REMARKS
LOUISVILLE/SDF PTCLDY    88  74  63 SW5       29.96R HX  96
LOUISVILLE/LOU CLEAR     87  76  69 S5        29.97R HX  97
FORT KNOX      CLEAR     80  75  86 CALM      29.97R
$$

KYZ035>037-039>044-047>052-055>060-089>105-220400-
NORTHEAST KENTUCKY

CITY           SKY/WX    TMP DP  RH WIND       PRES   REMARKS
LEXINGTON      CLEAR     82  73  74 S5        29.99S
COVINGTON      PTCLDY    77  73  87 S3        29.97S
FRANKFORT      CLEAR     82  73  74 SW3       29.97R
$$

KYZ054-064>069-076>088-106>120-220400-
SOUTHEAST KENTUCKY

CITY           SKY/WX    TMP DP  RH WIND       PRES   REMARKS
JACKSON        CLEAR     80  73  79 CALM      30.03S
LONDON         CLEAR     80  72  76 CALM      30.04R
SOMERSET       CLEAR     77  70  78 CALM      30.03S
MIDDLESBORO    CLEAR     78  72  82 CALM      30.05S
MONTICELLO     CLEAR     75  73  93 NE8       30.04R
$$





USA.gov is the U.S. government's official web portal to all federal, state and local government web resources and services.